Regional Weather Roundup
Issued by NWS

Home | Current Version | Previous Version | Text Only | Print | Product List | Glossary Off
Versions: 1 2 3 4 5 6 7 8 9 10 11 12 13 14 15 16 17 18 19 20 21 22 23 24 25 26 27 28 29 30 31 32 33 34 35 36 37 38 39 40 41 42 43 44 45 46 47 48 49 50

000
ASUS45 KBOU 201007
RWRCO

WEATHER ROUNDUP FOR COLORADO
NATIONAL WEATHER SERVICE DENVER/BOULDER CO
300 AM MST THU NOV 20 2014

NOTE: "FAIR" INDICATES FEW OR NO CLOUDS BELOW 12000 FEET WITH NO
SIGNIFICANT WEATHER AND/OR OBSTRUCTIONS TO VISIBILITY.

COZ001>005-013-030-031-201100-
...NORTHWEST COLORADO...

CITY           SKY/WX    TMP DP  RH WIND       PRES   REMARKS
CRAIG          PTCLDY    11   6  81 W3        30.13S
HAYDEN         PTCLDY    21  12  68 E13       30.11F WCI   9
MEEKER         PTCLDY    23  15  71 E5        30.13F WCI  17
MOUNT WERNER   NOT AVBL
STEAMBOAT SPGS PTCLDY    16  12  84 CALM      30.13S
WALDEN         CLOUDY    25   7  46 S8        30.06F WCI  16
$$

COZ006>008-011-201100-
...WEST CENTRAL VALLEYS...

CITY           SKY/WX    TMP DP  RH WIND       PRES   REMARKS
GRAND JUNCTION MOCLDY    28  13  53 S5        30.15F WCI  23
MONTROSE       PTCLDY    21  15  78 S6        30.18F WCI  13
EAGLE          PTCLDY    16  12  86 CALM      30.20S
RIFLE          PTCLDY    23  16  74 CALM      30.18S
DELTA          PTCLDY    26  16  66 CALM      30.18S
NUCLA          PTCLDY    30  21  69 E7        30.18F WCI  23
$$

COZ017>023-064>068-201100-
...SOUTHWEST COLORADO...

CITY           SKY/WX    TMP DP  RH WIND       PRES   REMARKS
DURANGO        PTCLDY    21  17  84 N3        30.15F
CORTEZ         PTCLDY    23  18  81 NE3       30.15F
PAGOSA SPRINGS PTCLDY    24  15  69 CALM      30.16F
TELLURIDE      NOT AVBL
WOLF CREEK PAS PTCLDY    19   3  49 SW15      30.18F WCI   5
$$

COZ009-010-012-014-032>034-037-058>063-201100-
...CENTRAL COLORADO...

CITY           SKY/WX    TMP DP  RH WIND       PRES   REMARKS
ASPEN          MOCLDY    18  10  71 CALM      30.14F
BUENA VISTA    CLOUDY    29   7  38 NW5       30.09S WCI  24
COPPER MTN     MOCLDY    23  -8  25 W18       30.14F WCI   9
BERTHOUD PASS  FAIR      12   7  79 NW23G30   30.09R WCI  -7
COTTONWOOD PAS CLOUDY    32 -15  12 N7        30.09F WCI  26
GUNNISON       PTCLDY     7   0  72 CALM      30.23S
KREMMLING      PTCLDY    12   9  85 CALM      30.16F
LEADVILLE      MOCLDY    18   0  45 NE12      30.11F WCI   5
MONARCH PASS   MOCLDY    19  -8  30 W37       30.23S WCI  -1
SALIDA         CLOUDY    33   5  30 NW15      30.15R WCI  23
SUNLIGHT       CLOUDY    23   9  54 CALM      30.17F
WILKERSON PASS CLOUDY    25 -15  17 W9G16     30.12S WCI  15
$$

COZ069>075-201100-
...SAN LUIS VALLEY/SANGRE DE CRISTO MOUNTAINS...

CITY           SKY/WX    TMP DP  RH WIND       PRES   REMARKS
ALAMOSA        MOCLDY    11   7  84 SW3       30.13F
LA VETA PASS   CLOUDY    21   9  58 SW12G24   30.07F WCI   9
SAGUACHE       MOCLDY    21  10  63 CALM      30.15S
$$

COZ035-036-038>040-201100-
...NORTHERN COLORADO FRONT RANGE...

CITY           SKY/WX    TMP DP  RH WIND       PRES   REMARKS
DENVER INTL AP PTCLDY    29  20  69 W6        29.99S WCI  23
DMNS CITY PARK   N/A     24  19  78 E3        29.99S
AURORA         PTCLDY    29  20  69 E5        29.99F WCI  24
FRONT RANGE AP PTCLDY    28  21  74 SW7       29.99F WCI  21
ERIE MUNI ARPT PTCLDY    21  18  91 E3        30.00S
BOULDER MUN AP PTCLDY    27  19  74 S5        29.99S WCI  21
CENTENNIAL     PTCLDY    24  16  71 SW3       29.98F
BROOMFIELD     PTCLDY    30  19  64 CALM      29.99F
FORT COLLINS   PTCLDY    27  19  74 SE5       30.01S WCI  21
LONGMONT       PTCLDY    21  17  84 CALM      30.02S
$$

COZ041-046-047-076>085-087-088-201100-
...PIKES PEAK/PALMER DIVIDE AND SOUTHERN FOOTHILLS...

CITY           SKY/WX    TMP DP  RH WIND       PRES   REMARKS
COLO. SPRINGS  MOCLDY    30  16  56 N8        29.99F WCI  22
A. F. ACADEMY  MOCLDY    22   8  55 N9        29.99F WCI  12
ELLICOTT       MOCLDY    24  16  71 CALM      29.97F
FALCON         NOT AVBL
FORT CARSON    MOCLDY    30  19  62 N12       29.97F WCI  21
LIMON          PTCLDY    14  10  84 N6        29.99F WCI   5
MONUMENT HILL  PTCLDY    25   9  50 S6        29.99F WCI  18
TRINIDAD       MOCLDY    29  19  66 W9        30.00S WCI  20
$$

COZ042>045-048>051-090-091-201100-
...NORTHEAST COLORADO...

CITY           SKY/WX    TMP DP  RH WIND       PRES   REMARKS
GREELEY ARPT   PTCLDY    16   9  73 CALM      30.01F
AKRON          CLEAR     23  19  85 NW8       29.98F WCI  14
BURLINGTON     PTCLDY    21  15  78 W8        29.99F WCI  11
WRAY           PTCLDY    13   9  85 W7        30.01S WCI   2
STERLING       CLEAR     16  12  86 W3        30.01S
HOLYOKE        PTCLDY    19  14  79 NW7       30.01S WCI  10
FORT MORGAN    CLEAR     18  13  82 W5        30.01S WCI  11
$$

COZ086-089-092>099-201100-
...SOUTHEAST COLORADO...

CITY           SKY/WX    TMP DP  RH WIND       PRES   REMARKS
PUEBLO         MOCLDY    29  23  78 SW3       29.99S
LA JUNTA       CLOUDY    27  23  85 W6        30.00F WCI  20
LAMAR          MOCLDY    23  21  92 CALM      29.99S
SPRINGFIELD      N/A     30  24  78 CALM      29.98F
$$



USA.gov is the U.S. government's official web portal to all federal, state and local government web resources and services.